Regional Weather Roundup
Issued by NWS

Home | Current Version | Previous Version | Text Only | Print | Product List | Glossary On
Versions: 1 2 3 4 5 6 7 8 9 10 11 12 13 14 15 16 17 18 19 20 21 22 23 24 25 26 27 28 29 30 31 32 33 34 35 36 37 38 39 40 41 42 43 44 45 46 47 48 49 50
487
ASUS44 KLIX 141810
RWRLA
LOUISIANA WEATHER ROUNDUP
NATIONAL WEATHER SERVICE NEW ORLEANS LA
1200 PM CST SUN FEB 14 2016

NOTE: "FAIR" INDICATES FEW OR NO CLOUDS BELOW 12,000 FEET WITH NO
      SIGNIFICANT WEATHER AND/OR OBSTRUCTIONS TO VISIBILITY.
      SKY/WX - SKY CONDITION AND SIGNIFICANT WEATHER.
      TMP - AIR TEMPERATURE.    DP   - DEWPOINT TEMPERATURE.
      RH  - RELATIVE HUMIDITY.  PRES - PRESSURE.
      HX  - HEAT INDEX.         WCI  - WIND CHILL INDEX.

*  THESE STATIONS ARE NOT NWS OR FAA STATIONS AND ARE NOT UNDER
   NWS QUALITY CONTROL.

LAZ040-048-061>063-065-066-069-141900-
SOUTHEAST LOUISIANA

CITY           SKY/WX    TMP DP  RH WIND       PRES   REMARKS
N.O. AUDUBON     N/A     66 N/A N/A MISG        N/A
6HR MIN TEMP:  50; 6HR MAX TEMP:  67;

N.O. INTL ARPT PTSUNNY   69  48  47 S18G28    30.17F
6HR MIN TEMP:  48; 6HR MAX TEMP:  69;

N.O. LAKEFRONT MOSUNNY   66  48  52 S18       30.18F
6HR MIN TEMP:  51; 6HR MAX TEMP:  66;

N.O. DOWNTOWN* NOT AVBL
RESERVE*       FAIR      70  48  45 S17       30.16F
6HR MIN TEMP:  47; 6HR MAX TEMP:  70;

SLIDELL        CLOUDY    65  49  56 S17G28    30.19F
6HR MIN TEMP:  35; 6HR MAX TEMP:  67; 6HR PCP: TRACE;

BATON ROUGE    PTSUNNY   66  47  50 SE13      30.14F
6HR MIN TEMP:  42; 6HR MAX TEMP:  66;

BOOTHVILLE     SUNNY     66  52  60 S10       30.21F
6HR MIN TEMP:  50; 6HR MAX TEMP:  67;

BELLE CHASSE   PTSUNNY   67  50  54 S16G24    30.17F
6HR MIN TEMP:  44; 6HR MAX TEMP:  68;

BOGALUSA*        N/A     66  44  45 S12G21    30.20F
GALLIANO*      PTCLDY    69  52  53 SE9       30.18F
6HR MIN TEMP:  47; 6HR MAX TEMP:  69;

NEW ROADS*     FAIR      65  49  56 SE12      30.13F
6HR MIN TEMP:  42; 6HR MAX TEMP:  65;

GONZALES*      FAIR      66  49  53 SE12G18   30.14F
6HR MIN TEMP:  42; 6HR MAX TEMP:  68;

HAMMOND*       MOSUNNY   66  45  45 SE15      30.18F
HOUMA*         SUNNY     68  54  60 SE15G23   30.15F
PORT FOURCHON* CLOUDY    64  54  68 E7        30.19F

$$

LAZ041-044-053-054-141900-
SOUTHWEST LOUISIANA

CITY           SKY/WX    TMP DP  RH WIND       PRES   REMARKS
LAKE CHARLES   CLOUDY    69  56  62 S17G29    30.08F
6HR MIN TEMP:  54; 6HR MAX TEMP:  69;

LAFAYETTE      PTSUNNY   66  52  60 S14G23    30.12F
6HR MIN TEMP:  50; 6HR MAX TEMP:  67;

PATTERSON      MOSUNNY   68  50  52 SE15G23     N/A
6HR MIN TEMP:  45; 6HR MAX TEMP:  68;

SALT POINT       N/A     65  53  65 SE13G23   30.12F
6HR MIN TEMP:  47; 6HR MAX TEMP:  65;

NEW IBERIA     MOSUNNY   67  51  56 S20G29    30.14R
6HR MIN TEMP:  48; 6HR MAX TEMP:  69; 6HR PCP: TRACE;

CHENAULT AIRPK PTSUNNY   66  55  68 S23G30    30.09F

$$

LAZ027-028-141900-
CENTRAL LOUISIANA

CITY           SKY/WX    TMP DP  RH WIND       PRES   REMARKS
FORT POLK      PTSUNNY   62  53  71 SE12      30.07F
6HR MIN TEMP:  51; 6HR MAX TEMP:  62;

ALEXANDRIA INT PTSUNNY   62  50  64 SE9       30.09F
6HR MIN TEMP:  48; 6HR MAX TEMP:  64;

ALEXANDRIA     PTSUNNY   66  47  50 S9        30.10F
6HR MIN TEMP:  46; 6HR MAX TEMP:  66;


$$

LAZ001-002-141900-
NORTHWEST LOUISIANA

CITY           SKY/WX    TMP DP  RH WIND       PRES   REMARKS
SHREVEPORT     CLOUDY    58  47  66 S8        30.05F
6HR MIN TEMP:  45; 6HR MAX TEMP:  58;

BARKSDALE AFB  CLOUDY    59  48  67 S15       30.04F
6HR MIN TEMP:  44; 6HR MAX TEMP:  59;

DTN SHREVEPORT CLOUDY    58  48  69 S10       30.05F
6HR MIN TEMP:  45; 6HR MAX TEMP:  59;


$$

LAZ014-016-141900-
NORTHEAST LOUISIANA

CITY           SKY/WX    TMP DP  RH WIND       PRES   REMARKS
MONROE         CLOUDY    61  41  47 S12       30.09F
6HR MIN TEMP:  43; 6HR MAX TEMP:  61;

TALLULAH       CLOUDY    60  36  40 S12       30.13F
6HR MIN TEMP:  45; 6HR MAX TEMP:  60;


$$





USA.gov is the U.S. government's official web portal to all federal, state and local government web resources and services.